Wind_Speed
27 26 25 27 28 25 23 22 24 25 22 16 13 16 16 16 16 17 20 20 19 20 22 23 25 25 25 25 25 25 24 23 21 20 22 23 23 22 22 22 22 23 24 25 26 28 29 29 30 31 32 32 33 34 36 37 38 39 40 41 42 43
25 25 25 28 30 28 27 25 24 26 25 20 18 18 16 15 13 13 17 19 19 20 21 22 23 24 24 25 25 25 25 24 22 22 22 23 22 22 22 22 22 23 24 25 27 28 29 29 30 30 32 32 33 34 35 36 37 39 40 41 42 43
26 25 25 28 30 30 31 29 25 24 25 24 22 19 18 20 17 15 16 18 19 20 20 20 20 21 21 23 25 26 27 25 24 23 24 24 23 22 22 22 22 23 25 26 27 28 29 29 29 30 30 31 32 33 33 34 36 37 38 39 40 41
27 26 26 28 31 31 33 32 28 25 24 25 26 23 20 21 22 19 17 18 19 21 21 19 18 19 18 20 22 24 26 27 26 25 25 26 26 25 24 24 24 25 26 27 27 28 28 28 28 29 29 30 30 31 31 32 33 34 35 36 38 39
28 29 28 29 33 34 34 32 30 28 26 25 25 24 23 22 22 21 19 19 20 21 21 21 21 22 21 20 21 22 24 27 28 28 27 28 28 27 27 27 26 27 28 28 28 28 28 28 28 28 28 29 29 30 31 31 32 32 34 37 39 39
28 30 29 27 31 35 35 33 32 31 29 28 26 25 25 24 23 22 21 22 23 23 24 24 25 25 25 24 23 24 25 26 28 30 29 30 30 30 29 29 28 29 30 30 30 30 30 29 30 29 29 30 30 31 31 32 32 33 36 39 40 39
28 28 30 26 25 30 33 33 33 32 30 31 31 30 29 27 24 23 23 23 23 24 25 26 26 26 26 26 26 26 26 27 28 29 31 32 32 32 32 32 32 32 32 32 32 32 32 32 33 33 33 33 33 33 32 32 33 34 36 37 37 37
32 28 30 27 23 26 31 34 35 36 35 32 30 31 32 30 27 25 24 23 23 23 25 26 26 26 27 27 27 28 28 28 29 29 31 32 33 34 34 35 35 35 34 35 34 35 36 36 37 36 36 35 34 33 33 33 33 34 35 34 33 34
39 35 34 31 26 24 26 29 29 34 39 34 28 28 30 30 30 29 27 27 27 28 28 27 26 27 28 28 28 29 30 30 31 31 31 32 33 34 35 36 37 37 37 38 38 39 40 40 39 38 38 36 34 33 33 32 33 34 33 32 32 33
41 42 41 38 33 28 25 23 19 22 31 33 29 27 27 28 30 31 31 31 31 31 30 29 28 28 28 28 28 29 30 31 32 33 33 33 33 34 35 36 37 38 39 40 41 41 40 39 38 37 38 37 36 34 33 33 33 33 32 31 32 33
40 43 45 44 41 36 32 30 26 23 26 30 29 27 27 29 31 32 32 32 31 30 29 28 27 27 27 27 28 29 30 31 32 34 35 35 35 35 35 36 37 38 38 39 39 39 38 36 35 35 35 36 37 35 34 34 33 33 32 32 32 33
38 41 43 45 45 43 42 40 39 37 36 35 34 33 33 34 35 34 33 32 31 29 28 27 25 25 25 26 27 28 29 30 32 34 35 36 36 36 35 36 36 37 37 37 37 37 37 36 35 34 35 35 35 35 36 36 35 34 33 33 33 33
37 38 39 41 43 44 45 44 43 42 41 40 39 38 38 37 36 35 33 32 31 30 28 27 26 26 25 26 26 27 28 30 32 33 35 36 37 37 36 36 36 37 37 37 37 37 37 37 36 36 35 34 34 35 36 38 38 37 35 33 34 34
36 37 37 38 40 41 42 42 42 41 40 40 39 38 37 36 35 34 33 31 31 31 31 29 28 28 28 28 28 29 30 31 32 33 34 36 37 37 37 37 37 37 37 38 39 39 39 39 38 38 37 35 35 35 37 39 40 39 38 36 35 35
35 36 37 37 38 38 38 39 39 39 39 38 38 38 37 36 35 35 33 32 32 32 32 32 31 31 31 31 30 30 31 32 33 34 34 35 37 37 38 38 38 38 38 39 40 41 41 41 40 40 39 38 37 38 39 40 41 41 40 39 38 37
35 36 36 36 37 37 37 37 37 37 37 37 37 37 37 37 36 35 34 33 33 33 33 33 33 33 33 33 32 32 32 33 34 35 36 36 37 38 38 39 39 39 39 40 41 42 42 42 42 42 42 41 40 40 41 42 43 43 43 42 41 40
35 35 35 35 35 36 36 36 36 36 36 37 37 37 37 37 37 36 36 35 35 35 35 35 35 35 35 35 35 34 34 35 36 37 37 38 38 39 39 40 40 41 41 42 43 44 44 44 44 45 45 44 44 43 44 45 46 46 46 46 45 44
34 34 34 34 33 33 33 34 34 35 35 36 37 38 38 38 38 37 37 37 37 37 37 37 37 37 37 37 37 37 37 37 37 38 39 40 40 40 41 41 42 42 43 43 45 46 46 47 47 47 47 48 47 47 47 47 48 49 50 50 50 50
33 33 33 32 32 31 31 31 32 33 34 35 36 37 38 38 38 38 37 37 38 38 38 38 38 38 38 38 38 38 38 38 38 39 40 41 42 42 43 43 43 44 44 45 46 47 48 49 49 49 49 49 50 50 50 50 50 51 53 54 54 55
32 32 32 31 30 29 29 30 32 33 35 36 37 37 38 38 38 38 38 37 37 37 36 37 37 37 38 38 38 37 37 37 37 38 39 41 42 43 44 44 45 45 45 46 47 48 49 50 51 51 51 51 51 52 52 53 53 54 55 56 57 58
30 30 30 30 29 28 29 30 31 33 34 35 36 37 37 37 37 37 36 36 35 34 34 34 34 35 36 37 37 38 37 37 37 37 38 39 41 42 43 44 45 45 46 46 47 49 50 50 51 52 52 53 53 53 54 54 55 56 57 58 59 60
31 31 31 31 31 31 31 32 32 33 34 35 36 36 36 37 36 36 35 34 33 32 32 32 33 33 34 35 36 37 38 39 39 40 41 41 42 43 43 44 45 46 46 47 48 50 51 51 52 53 53 53 53 54 54 55 56 58 59 59 60 61
33 34 34 35 35 34 34 34 35 35 36 37 37 36 35 35 34 34 34 32 31 31 32 33 34 34 35 36 37 37 38 39 40 41 43 44 45 46 46 47 47 48 48 49 49 51 52 52 53 54 54 54 54 54 55 56 57 58 59 60 61 62
34 34 35 35 35 35 34 35 35 35 36 37 38 38 37 36 34 34 34 34 35 35 36 36 36 36 36 36 37 38 38 39 39 41 42 44 45 47 48 48 49 49 50 50 51 52 53 54 55 55 56 56 56 56 57 58 59 60 60 61 62 63
33 34 34 35 35 35 35 35 35 35 35 36 37 38 38 38 37 36 36 37 39 39 39 38 38 37 37 37 38 38 39 40 40 41 42 43 44 45 46 47 48 49 49 50 51 52 53 54 55 56 57 58 58 59 59 61 62 63 63 64 65 66
34 34 35 35 36 35 36 36 36 36 36 37 37 37 37 38 38 39 39 39 40 41 40 40 39 39 39 39 39 39 40 40 41 42 43 43 43 44 45 47 48 50 50 51 51 51 52 52 53 54 55 56 57 58 58 59 62 63 64 65 67 68
35 36 36 37 37 37 36 36 37 37 37 37 38 38 38 39 39 40 40 40 41 41 41 41 41 42 42 41 40 40 41 42 43 44 44 45 45 45 45 47 48 49 50 51 51 51 51 52 52 53 54 55 56 57 58 59 61 63 64 65 67 69
36 37 38 38 38 38 37 37 38 38 38 38 39 39 40 40 40 41 41 41 41 42 43 44 44 44 42 41 41 42 42 43 44 45 46 46 47 47 48 48 49 50 50 51 52 52 53 54 54 55 56 58 58 59 60 61 62 63 65 66 68 70
38 39 40 40 39 39 39 39 40 40 40 40 41 41 41 41 42 42 43 43 43 45 46 46 45 43 42 42 42 42 43 44 45 46 47 48 49 49 50 51 51 52 53 54 54 55 56 56 57 58 59 60 61 62 63 64 64 65 66 68 70 71
39 40 41 41 40 41 42 42 42 42 42 43 43 43 44 44 44 45 45 46 46 46 46 45 44 42 41 42 42 43 43 44 44 45 46 47 49 50 51 51 52 53 54 55 56 56 57 58 59 60 61 62 63 64 66 66 67 67 67 67 70 71
41 43 44 43 43 44 44 44 44 44 45 45 46 46 46 46 47 47 47 46 45 44 43 43 43 41 41 41 41 42 43 43 44 45 46 47 49 50 51 51 52 53 54 55 56 57 59 60 61 62 63 64 65 66 67 68 68 68 67 68 71 72
42 43 45 45 46 46 46 46 46 46 47 47 47 47 47 47 47 46 45 44 42 42 42 42 41 40 40 40 40 41 42 43 44 46 47 49 50 51 52 53 54 55 56 57 58 59 60 61 62 63 64 65 66 67 68 68 68 68 68 69 70 71
38 40 41 42 43 44 44 44 44 45 45 45 45 45 44 44 43 42 41 41 41 41 41 40 40 39 39 39 40 42 43 45 46 48 50 51 52 53 54 55 56 56 57 58 59 59 60 61 62 63 64 65 66 66 66 66 66 65 65 66 67 66
29 31 33 35 36 37 38 38 39 40 40 40 40 40 40 40 40 40 40 40 40 39 39 38 38 38 38 40 41 42 44 46 47 48 50 51 52 53 53 54 54 55 55 56 57 59 60 61 61 62 63 63 64 64 63 63 63 63 63 63 64 64
19 22 24 26 28 29 31 32 33 34 35 36 36 37 38 38 38 38 37 37 37 36 36 36 36 37 38 39 40 42 43 45 46 47 48 50 51 52 53 53 54 55 55 56 57 58 58 59 59 60 61 62 62 62 62 62 62 62 62 60 59 59
13 16 18 20 21 23 24 26 27 28 29 30 31 32 32 33 33 33 33 33 34 34 35 36 37 38 39 40 41 42 44 46 47 48 49 50 51 52 53 53 54 54 55 55 55 56 56 57 59 60 61 61 62 61 61 60 59 58 56 53 52 52
10 12 14 16 18 19 21 22 23 24 24 25 26 27 27 28 29 30 31 32 33 34 35 37 38 39 40 42 43 44 46 47 48 50 51 51 52 52 52 52 53 53 53 53 53 54 56 57 58 58 58 59 59 58 56 54 52 51 50 48 47 47
Wind_Direction
193 198 207 206 197 198 203 207 212 217 219 218 228 235 236 239 237 241 246 248 247 243 241 243 244 243 238 238 239 240 240 242 244 246 246 244 245 246 246 244 242 239 238 240 242 245 247 246 246 248 248 249 249 249 250 251 252 253 255 257 258 258
192 200 207 205 201 204 210 211 210 215 222 223 225 228 233 230 222 233 244 248 248 246 245 244 246 246 243 239 238 240 240 242 244 245 246 247 247 247 247 248 246 244 242 242 242 244 244 245 245 247 248 248 249 249 251 252 253 254 255 257 257 258
189 200 204 205 204 208 214 214 209 212 223 227 226 225 232 235 226 226 236 245 254 258 255 249 246 247 248 244 241 241 239 240 244 248 249 251 253 252 252 253 252 251 247 245 245 246 246 245 245 246 247 248 249 250 250 251 253 255 256 257 258 258
187 197 203 204 205 210 215 214 207 207 219 227 228 224 222 228 225 221 226 237 252 263 264 261 257 257 254 247 244 244 242 240 241 246 250 251 253 255 256 258 259 258 254 251 250 251 251 250 250 250 251 251 252 253 253 253 255 257 259 259 259 259
187 193 201 204 203 211 216 211 205 206 215 222 224 220 214 215 216 215 221 229 241 252 257 261 264 268 266 257 250 248 248 245 241 242 245 249 252 255 256 257 258 257 255 254 252 252 254 255 255 256 257 257 258 258 259 259 259 261 262 261 261 262
186 190 197 204 205 210 214 210 207 209 218 223 225 226 219 216 215 216 223 229 233 239 246 253 258 263 265 264 259 254 253 251 248 245 245 248 252 254 256 257 256 256 255 254 253 252 254 256 258 260 260 262 264 265 266 265 265 265 264 263 264 265
180 186 193 200 206 211 214 215 215 217 224 227 228 231 227 222 220 221 228 232 233 234 239 247 253 258 261 263 264 262 260 258 256 252 250 250 251 253 255 257 257 257 256 255 255 256 258 261 263 263 263 264 267 268 269 269 268 265 262 263 265 264
180 181 187 191 201 207 211 217 219 219 225 226 224 226 224 222 223 225 229 233 236 237 239 244 250 257 260 261 263 264 264 262 261 259 257 254 253 253 254 255 256 257 257 257 257 258 262 265 267 266 264 264 266 267 268 267 264 260 259 261 261 260
186 182 182 184 194 200 202 210 215 219 222 222 221 219 217 221 225 230 236 240 242 244 245 246 248 254 258 261 262 263 263 263 263 262 261 259 257 256 255 256 257 258 259 259 260 262 264 266 266 265 263 263 263 264 262 260 259 256 256 257 258 259
191 190 189 190 197 201 200 205 213 221 223 221 223 223 220 225 232 238 244 246 246 246 247 247 249 252 256 259 261 263 263 263 263 263 263 263 263 262 261 260 260 260 261 262 263 265 266 265 264 263 261 262 261 261 259 255 253 252 252 252 254 257
196 196 198 200 205 208 209 216 222 226 230 229 231 234 235 237 242 246 246 245 244 244 245 247 250 251 253 256 258 260 262 263 263 263 264 264 264 265 264 264 263 263 262 263 263 263 263 262 262 261 261 261 261 260 257 253 250 251 253 252 253 256
200 200 203 206 210 213 216 223 230 235 240 242 242 245 247 248 248 248 245 241 240 240 243 246 249 251 253 255 257 259 261 262 262 263 263 263 263 264 264 265 264 264 263 262 261 261 261 260 259 260 261 262 262 260 255 251 250 252 254 254 254 255
203 205 206 209 212 216 220 225 232 237 240 243 245 246 248 249 249 248 246 243 241 241 244 248 251 253 255 257 259 261 262 262 262 262 261 261 261 262 262 263 263 264 263 262 262 262 262 261 261 262 262 262 262 260 254 250 247 248 251 253 254 255
207 208 210 213 215 219 223 227 231 235 238 240 242 244 245 247 248 249 249 248 246 246 247 250 254 256 258 259 260 262 262 263 262 261 261 260 259 259 260 260 261 262 262 262 263 263 264 264 264 264 264 262 261 259 254 250 247 246 248 251 252 254
210 211 213 215 219 222 224 228 231 234 237 239 241 242 244 246 248 249 250 252 251 251 252 254 257 259 260 260 260 261 261 262 262 262 261 260 260 259 259 259 259 260 261 262 263 265 265 265 266 266 265 263 261 258 255 251 249 248 249 250 251 253
212 214 216 219 221 224 227 230 232 235 237 239 241 243 244 245 247 249 251 253 255 256 257 259 260 261 262 262 262 261 260 260 260 260 261 261 261 261 260 259 259 260 260 261 263 264 265 265 266 267 266 265 263 260 257 254 252 251 252 252 252 253
214 216 218 221 224 226 229 232 234 237 239 241 242 244 245 247 248 249 252 254 256 258 260 262 263 263 263 263 263 263 261 260 259 259 259 259 260 261 261 261 260 260 261 261 263 264 264 265 266 267 267 267 266 263 260 257 255 254 254 254 254 254
217 219 220 222 226 229 232 235 237 240 242 244 245 247 248 249 250 252 254 256 258 260 262 263 264 265 265 264 264 263 263 262 261 260 259 259 258 258 259 260 260 261 261 262 263 264 264 264 265 266 266 267 267 266 263 261 259 257 256 256 256 256
221 223 224 225 227 231 234 238 241 244 246 248 249 250 252 253 254 256 258 260 261 262 263 264 265 265 265 264 263 263 263 263 263 262 262 261 261 260 259 258 259 260 261 262 263 264 265 265 265 265 265 266 266 266 266 264 262 261 260 259 259 259
222 225 225 225 227 230 234 238 242 245 248 250 252 254 255 256 257 258 259 260 261 263 264 265 266 266 266 265 265 264 264 264 264 263 263 263 263 263 263 262 261 261 261 262 263 265 265 265 266 265 265 266 266 266 266 266 265 264 263 262 262 263
222 226 227 227 227 229 233 238 242 245 249 251 253 255 256 257 258 257 258 258 260 262 263 265 266 267 267 267 267 266 266 266 266 265 265 265 265 265 265 265 265 264 264 264 264 265 266 266 266 266 266 266 266 267 267 266 266 265 264 264 264 264
228 231 234 234 235 237 239 242 245 248 251 253 254 255 256 256 257 257 257 258 260 262 264 266 268 269 269 268 268 267 267 266 266 266 266 266 265 265 265 266 266 266 266 266 266 266 266 266 267 267 267 266 266 267 267 267 267 267 265 265 265 265
234 236 238 239 240 242 244 246 248 250 252 253 254 254 254 254 256 257 257 258 261 266 270 272 273 273 272 270 269 268 267 266 266 265 265 264 264 264 264 264 264 264 265 265 265 266 267 267 267 267 267 267 266 266 267 267 268 268 267 267 267 267
238 240 241 242 244 245 247 249 250 252 254 255 255 255 255 255 257 260 261 262 267 273 277 277 276 277 275 272 270 269 268 268 267 266 266 265 264 264 263 263 263 263 262 263 263 264 265 265 266 267 267 267 267 267 268 268 268 268 268 268 268 268
244 245 247 248 250 251 253 254 256 257 258 258 259 259 258 258 260 264 266 269 273 277 279 278 277 278 278 275 271 268 267 267 267 267 267 267 267 266 266 265 265 264 264 264 264 264 265 265 265 266 267 267 268 268 268 269 268 268 267 267 267 267
249 250 252 253 254 255 257 258 260 261 261 262 262 263 262 262 264 268 270 273 276 278 278 278 278 279 279 275 271 268 266 266 266 266 266 267 267 267 267 266 266 266 266 266 266 266 266 267 267 267 267 268 268 268 268 268 269 269 268 268 268 267
251 253 254 255 256 257 259 260 261 262 263 263 264 265 266 267 268 270 272 274 276 277 277 277 278 279 277 273 269 268 267 267 266 265 266 266 267 267 266 265 264 264 264 265 266 267 268 269 269 270 270 270 270 270 270 269 270 270 270 270 270 269
253 254 255 256 258 259 260 260 261 262 262 262 263 265 267 268 270 271 272 274 275 276 276 277 277 277 274 270 268 268 268 268 266 265 265 265 266 266 265 265 264 265 265 266 267 269 269 270 270 271 271 271 271 271 271 270 270 270 271 271 271 270
255 256 256 258 260 260 260 259 260 260 261 262 263 265 267 269 271 272 273 274 275 275 276 276 275 273 271 269 268 268 268 268 267 266 266 266 266 266 266 266 266 267 267 267 268 268 269 269 270 270 271 271 272 272 272 272 271 271 271 272 271 270
257 257 258 259 260 260 260 260 260 261 262 264 265 267 268 270 271 273 274 275 276 276 276 276 275 273 272 270 270 269 268 268 268 268 268 268 267 267 267 267 267 267 268 268 269 269 269 270 270 270 271 271 272 272 272 272 272 272 272 272 272 271
258 259 260 260 260 261 262 263 263 264 265 266 267 268 270 271 272 274 275 275 275 275 275 274 274 273 272 271 270 269 269 269 269 270 270 270 270 270 269 269 270 270 270 271 271 271 272 272 272 272 272 272 272 272 272 273 273 273 273 272 272 272
259 260 261 262 262 262 263 264 265 266 267 267 268 269 271 272 272 273 274 273 273 273 273 273 273 272 272 271 270 270 270 270 270 271 271 271 272 272 272 272 272 273 274 274 274 274 274 274 274 274 274 274 273 273 273 273 273 273 273 273 272 273
257 258 258 260 261 262 263 264 265 266 267 267 268 269 270 271 271 271 271 271 271 271 272 272 272 271 271 270 269 270 270 270 270 270 271 271 272 272 273 273 273 274 274 275 275 275 275 275 275 275 275 275 274 274 275 275 275 275 274 274 274 274
259 259 258 258 259 260 261 262 263 263 264 266 267 268 269 269 270 270 270 270 270 271 271 272 272 271 271 270 270 270 270 270 270 271 271 272 273 273 273 273 273 274 274 274 275 275 275 275 275 275 275 275 275 276 276 276 276 276 276 276 277 276
267 266 264 262 261 261 261 261 262 262 263 264 266 267 267 268 269 269 269 270 271 271 272 273 273 273 273 273 273 273 272 272 272 272 272 272 272 273 273 274 274 274 274 274 275 275 276 276 276 276 276 276 276 277 277 277 277 277 277 277 277 277
277 274 272 270 266 264 262 261 262 262 263 264 264 264 265 266 267 268 269 270 271 272 273 274 276 276 277 277 276 275 275 274 274 273 273 273 273 273 274 274 275 275 275 275 275 275 276 277 278 278 278 278 278 278 278 278 278 278 277 277 276 276
284 283 283 280 275 269 264 261 260 260 261 262 262 263 264 265 266 267 269 270 271 273 274 276 276 277 277 276 276 275 275 275 275 275 275 274 274 274 274 275 275 275 274 275 275 277 278 279 279 279 278 278 278 278 278 278 278 278 278 279 278 276
Height
10747 10746 10746 10747 10749 10751 10753 10753 10754 10754 10755 10756 10757 10757 10758 10758 10759 10759 10760 10760 10761 10761 10761 10762 10763 10764 10765 10765 10766 10767 10768 10768 10769 10770 10771 10771 10772 10773 10774 10775 10776 10777 10778 10779 10780 10780 10781 10782 10783 10783 10784 10785 10786 10787 10788 10789 10790 10790 10791 10791 10790 10790
10743 10744 10744 10746 10748 10750 10751 10752 10753 10753 10754 10755 10756 10757 10757 10758 10758 10758 10758 10759 10759 10760 10760 10761 10762 10763 10763 10764 10765 10766 10766 10767 10767 10768 10769 10770 10771 10772 10773 10774 10775 10776 10776 10777 10777 10777 10778 10779 10780 10781 10781 10782 10783 10784 10785 10786 10787 10787 10788 10787 10787 10786
10741 10742 10743 10745 10747 10749 10750 10751 10752 10753 10754 10755 10756 10756 10756 10757 10757 10758 10757 10758 10758 10758 10759 10760 10760 10761 10762 10763 10764 10764 10765 10765 10766 10766 10767 10768 10769 10770 10771 10772 10773 10773 10774 10774 10774 10775 10775 10776 10777 10778 10778 10779 10779 10781 10782 10783 10783 10783 10783 10783 10782 10781
10740 10741 10743 10744 10747 10748 10750 10750 10751 10752 10754 10755 10755 10756 10755 10756 10756 10756 10757 10757 10757 10757 10757 10758 10759 10759 10760 10761 10762 10763 10763 10764 10764 10765 10766 10766 10767 10768 10768 10769 10770 10771 10771 10772 10772 10772 10773 10774 10775 10775 10776 10776 10777 10777 10778 10779 10779 10779 10779 10778 10776 10775
10739 10741 10742 10744 10746 10747 10749 10749 10750 10751 10753 10753 10754 10754 10754 10754 10754 10755 10755 10756 10756 10756 10756 10756 10757 10757 10758 10759 10760 10761 10762 10762 10762 10762 10763 10764 10765 10766 10766 10766 10768 10768 10769 10769 10770 10771 10771 10772 10772 10773 10773 10773 10774 10774 10775 10775 10776 10776 10775 10771 10770 10771
10738 10740 10742 10743 10744 10746 10747 10748 10749 10749 10750 10751 10751 10752 10752 10752 10753 10753 10754 10755 10755 10756 10755 10755 10755 10756 10756 10757 10758 10759 10759 10759 10759 10760 10761 10762 10762 10763 10763 10764 10765 10765 10766 10767 10767 10768 10769 10769 10769 10770 10770 10770 10771 10771 10772 10772 10773 10773 10769 10766 10768 10770
10736 10739 10741 10743 10743 10744 10745 10746 10747 10747 10748 10749 10749 10750 10750 10750 10751 10751 10752 10753 10753 10753 10753 10753 10753 10753 10754 10755 10755 10756 10756 10756 10757 10757 10758 10759 10759 10760 10761 10761 10762 10762 10763 10764 10765 10765 10766 10766 10766 10766 10766 10767 10767 10768 10769 10769 10770 10769 10764 10764 10767 10766
10733 10736 10739 10741 10741 10741 10742 10743 10744 10745 10745 10746 10747 10747 10748 10748 10749 10749 10750 10750 10750 10750 10751 10751 10751 10751 10751 10752 10752 10753 10753 10753 10754 10754 10755 10756 10756 10757 10758 10758 10759 10759 10760 10761 10762 10762 10762 10762 10762 10763 10763 10763 10764 10764 10765 10766 10767 10765 10762 10764 10764 10762
10729 10731 10735 10737 10737 10736 10737 10739 10740 10741 10742 10743 10743 10744 10745 10745 10746 10747 10748 10748 10748 10748 10749 10750 10750 10750 10749 10749 10749 10749 10750 10750 10750 10751 10751 10752 10753 10754 10754 10755 10756 10756 10757 10758 10759 10759 10758 10758 10759 10759 10759 10760 10760 10761 10762 10762 10763 10761 10760 10762 10761 10759
10726 10728 10730 10732 10732 10733 10735 10736 10736 10737 10738 10739 10740 10741 10742 10743 10744 10745 10746 10746 10746 10746 10747 10747 10748 10747 10747 10747 10746 10746 10746 10747 10747 10748 10748 10749 10750 10751 10751 10752 10752 10753 10754 10754 10754 10755 10755 10755 10755 10756 10756 10756 10757 10758 10758 10759 10758 10757 10758 10759 10758 10756
10724 10726 10728 10729 10730 10731 10733 10733 10732 10733 10733 10734 10736 10738 10739 10741 10742 10743 10743 10744 10744 10744 10745 10745 10745 10745 10745 10744 10744 10744 10744 10744 10744 10745 10745 10746 10747 10747 10748 10748 10749 10749 10750 10750 10750 10750 10751 10751 10752 10752 10752 10752 10753 10754 10755 10755 10755 10754 10754 10755 10754 10754
10721 10724 10726 10727 10728 10729 10730 10730 10729 10730 10730 10732 10734 10735 10736 10738 10739 10740 10741 10741 10742 10742 10742 10742 10742 10742 10742 10742 10742 10742 10742 10742 10742 10742 10743 10743 10744 10744 10744 10745 10745 10746 10746 10746 10746 10746 10747 10747 10748 10748 10748 10749 10749 10750 10751 10751 10751 10751 10751 10751 10751 10751
10719 10721 10723 10725 10726 10727 10728 10728 10728 10729 10730 10731 10732 10733 10734 10735 10736 10737 10738 10739 10739 10739 10739 10739 10739 10740 10739 10739 10739 10739 10739 10739 10740 10740 10740 10740 10740 10741 10741 10741 10742 10742 10743 10743 10742 10742 10743 10743 10744 10744 10744 10745 10745 10746 10747 10747 10747 10747 10748 10748 10748 10747
10718 10719 10721 10722 10724 10725 10726 10727 10728 10728 10729 10730 10731 10731 10732 10733 10733 10734 10734 10735 10735 10735 10736 10736 10736 10736 10736 10736 10736 10736 10736 10736 10737 10737 10737 10737 10737 10737 10737 10738 10738 10738 10739 10739 10738 10738 10738 10739 10739 10740 10740 10741 10741 10741 10742 10742 10743 10743 10744 10744 10745 10744
10716 10717 10719 10720 10722 10723 10724 10725 10726 10726 10727 10728 10728 10729 10729 10730 10730 10730 10731 10731 10731 10732 10732 10732 10733 10733 10733 10733 10733 10733 10733 10733 10733 10733 10733 10733 10733 10734 10734 10734 10734 10734 10735 10735 10734 10733 10734 10735 10735 10735 10736 10736 10737 10737 10738 10738 10738 10738 10739 10740 10741 10741
10714 10715 10716 10718 10719 10720 10721 10722 10723 10723 10724 10725 10725 10726 10726 10727 10727 10727 10727 10727 10727 10728 10728 10729 10729 10729 10729 10729 10729 10730 10730 10730 10730 10730 10730 10730 10730 10730 10730 10730 10730 10731 10731 10730 10729 10729 10729 10730 10730 10730 10731 10731 10732 10732 10733 10733 10733 10733 10734 10735 10736 10738
10712 10713 10714 10716 10717 10718 10719 10719 10720 10721 10721 10722 10722 10723 10723 10723 10724 10724 10724 10723 10724 10724 10724 10725 10725 10725 10725 10726 10726 10726 10726 10726 10726 10726 10726 10726 10726 10726 10726 10726 10727 10727 10726 10726 10725 10724 10725 10725 10725 10725 10726 10726 10726 10727 10727 10727 10728 10728 10728 10729 10730 10732
10710 10711 10712 10713 10714 10715 10716 10717 10718 10718 10718 10719 10719 10720 10720 10720 10720 10720 10720 10720 10720 10721 10721 10721 10721 10721 10721 10722 10722 10722 10722 10722 10722 10722 10722 10723 10723 10723 10723 10722 10723 10722 10722 10722 10721 10720 10720 10721 10721 10721 10721 10721 10721 10721 10722 10722 10722 10722 10723 10723 10724 10725
10708 10709 10710 10711 10712 10713 10714 10715 10715 10716 10716 10716 10717 10717 10717 10717 10717 10717 10717 10716 10717 10717 10717 10717 10717 10717 10718 10718 10718 10717 10717 10718 10718 10718 10718 10719 10719 10719 10719 10719 10718 10718 10718 10717 10716 10715 10715 10716 10716 10716 10716 10716 10716 10716 10716 10716 10716 10716 10716 10716 10717 10717
10706 10707 10708 10708 10709 10710 10711 10712 10713 10713 10713 10714 10714 10714 10714 10714 10714 10713 10713 10713 10713 10713 10713 10713 10713 10713 10713 10713 10713 10713 10713 10713 10713 10713 10714 10714 10714 10714 10714 10714 10714 10714 10714 10713 10712 10711 10710 10710 10710 10710 10710 10711 10711 10710 10710 10710 10710 10710 10710 10709 10710 10710
10704 10705 10705 10706 10707 10707 10708 10709 10710 10710 10711 10711 10711 10711 10711 10710 10710 10710 10709 10709 10709 10709 10709 10709 10709 10709 10709 10709 10709 10709 10709 10709 10709 10709 10709 10709 10709 10709 10709 10709 10709 10709 10709 10708 10707 10705 10705 10705 10704 10704 10704 10705 10705 10705 10704 10704 10703 10703 10703 10703 10703 10703
10701 10702 10703 10703 10704 10704 10705 10706 10706 10707 10707 10707 10707 10707 10707 10707 10706 10706 10706 10706 10706 10706 10706 10706 10705 10705 10705 10705 10705 10705 10705 10704 10704 10704 10703 10703 10703 10703 10703 10703 10703 10703 10703 10703 10701 10700 10699 10699 10698 10698 10698 10698 10699 10699 10698 10698 10697 10696 10696 10696 10696 10696
10698 10698 10699 10699 10700 10701 10701 10702 10703 10703 10703 10703 10703 10703 10703 10703 10702 10702 10702 10702 10702 10702 10702 10702 10702 10701 10701 10701 10701 10700 10700 10699 10699 10699 10698 10698 10697 10697 10698 10698 10698 10697 10697 10697 10696 10694 10693 10693 10692 10692 10692 10692 10692 10692 10692 10691 10690 10689 10689 10689 10689 10688
10695 10695 10695 10696 10696 10697 10698 10698 10699 10699 10699 10699 10699 10699 10699 10699 10699 10699 10699 10698 10698 10698 10698 10698 10698 10697 10697 10697 10696 10695 10695 10694 10694 10693 10692 10692 10692 10692 10692 10692 10692 10692 10692 10691 10690 10689 10688 10687 10686 10686 10685 10685 10686 10686 10686 10684 10684 10683 10683 10682 10681 10680
10691 10692 10692 10692 10693 10693 10694 10694 10694 10695 10695 10695 10695 10695 10695 10695 10695 10695 10695 10694 10694 10694 10693 10693 10693 10693 10692 10692 10691 10691 10690 10689 10688 10688 10687 10686 10686 10686 10686 10686 10686 10686 10686 10685 10684 10683 10682 10681 10681 10680 10679 10679 10679 10680 10680 10678 10676 10676 10676 10675 10674 10673
10687 10688 10688 10688 10689 10689 10690 10690 10690 10691 10691 10691 10690 10690 10691 10691 10691 10691 10690 10690 10689 10689 10689 10688 10688 10688 10687 10687 10686 10686 10685 10684 10683 10682 10681 10681 10680 10680 10680 10679 10679 10679 10678 10678 10677 10676 10675 10675 10674 10674 10673 10672 10672 10672 10673 10671 10668 10668 10668 10667 10666 10664
10684 10684 10684 10684 10685 10685 10686 10686 10686 10686 10686 10686 10686 10686 10686 10686 10686 10686 10686 10685 10685 10684 10684 10684 10683 10683 10682 10682 10681 10680 10679 10678 10677 10676 10676 10675 10675 10674 10674 10673 10672 10672 10671 10671 10670 10669 10669 10668 10667 10666 10666 10665 10665 10665 10664 10663 10662 10661 10660 10659 10658 10655
10681 10681 10680 10680 10681 10681 10682 10682 10682 10682 10682 10682 10682 10682 10682 10682 10681 10681 10681 10681 10681 10680 10679 10679 10678 10677 10677 10676 10676 10675 10674 10673 10672 10671 10670 10670 10669 10668 10668 10667 10667 10666 10665 10664 10664 10663 10662 10661 10661 10660 10658 10657 10657 10657 10655 10655 10655 10654 10653 10652 10649 10646
10677 10677 10676 10676 10677 10677 10677 10677 10677 10677 10677 10677 10677 10677 10677 10676 10676 10676 10676 10676 10675 10675 10673 10673 10672 10672 10671 10670 10670 10669 10668 10667 10666 10665 10665 10664 10663 10662 10662 10661 10661 10660 10659 10658 10657 10656 10655 10654 10654 10652 10651 10650 10649 10648 10647 10646 10646 10646 10646 10644 10638 10636
10672 10672 10672 10672 10673 10673 10673 10673 10672 10673 10673 10672 10672 10671 10671 10671 10671 10671 10670 10670 10669 10669 10667 10666 10666 10666 10665 10664 10664 10663 10662 10661 10660 10659 10658 10657 10656 10656 10655 10655 10654 10654 10653 10651 10650 10649 10648 10647 10646 10645 10644 10642 10641 10640 10638 10638 10637 10637 10638 10635 10627 10625
10667 10667 10667 10667 10668 10668 10668 10668 10668 10668 10667 10667 10667 10666 10666 10665 10665 10665 10665 10664 10663 10662 10661 10660 10660 10660 10659 10658 10657 10656 10656 10655 10654 10653 10652 10651 10649 10649 10648 10648 10647 10646 10645 10644 10643 10642 10640 10639 10638 10636 10635 10634 10632 10631 10630 10629 10628 10627 10629 10625 10618 10617
10662 10662 10661 10662 10662 10662 10662 10662 10662 10662 10662 10661 10661 10660 10660 10660 10660 10659 10659 10658 10657 10656 10655 10655 10654 10654 10653 10652 10651 10650 10650 10649 10648 10647 10646 10645 10643 10642 10642 10641 10640 10639 10638 10637 10635 10633 10632 10631 10629 10627 10626 10625 10623 10622 10621 10620 10619 10619 10618 10613 10610 10610
10658 10657 10656 10656 10656 10656 10657 10657 10656 10656 10656 10655 10655 10655 10654 10654 10654 10653 10653 10652 10651 10650 10650 10649 10648 10648 10647 10646 10645 10645 10644 10643 10642 10641 10640 10639 10637 10636 10635 10634 10633 10632 10631 10629 10627 10625 10624 10623 10621 10619 10617 10616 10614 10613 10612 10611 10610 10609 10608 10604 10602 10601
10653 10652 10651 10651 10650 10650 10651 10651 10651 10650 10650 10649 10649 10649 10649 10648 10648 10647 10647 10646 10646 10645 10644 10643 10643 10642 10641 10640 10640 10639 10638 10637 10636 10635 10633 10632 10630 10629 10627 10626 10625 10624 10623 10622 10620 10618 10616 10615 10613 10611 10609 10607 10606 10604 10604 10603 10602 10600 10599 10597 10594 10591
10650 10649 10647 10646 10646 10645 10645 10645 10645 10644 10644 10644 10644 10644 10643 10643 10643 10642 10641 10641 10640 10639 10639 10638 10637 10636 10636 10635 10634 10633 10632 10631 10629 10628 10627 10625 10623 10621 10620 10619 10618 10617 10616 10614 10613 10611 10609 10607 10605 10603 10601 10599 10598 10597 10596 10595 10594 10592 10591 10590 10588 10584
10647 10645 10644 10643 10642 10641 10640 10640 10639 10639 10639 10639 10639 10639 10638 10638 10638 10637 10637 10636 10635 10634 10633 10632 10632 10631 10630 10629 10628 10627 10625 10624 10622 10621 10620 10618 10617 10615 10613 10612 10611 10610 10608 10607 10606 10604 10602 10600 10598 10595 10593 10591 10589 10588 10588 10588 10586 10584 10583 10583 10582 10579
10644 10643 10641 10640 10638 10637 10636 10635 10635 10635 10635 10634 10634 10634 10633 10633 10632 10632 10632 10631 10630 10630 10628 10627 10626 10625 10624 10623 10621 10620 10619 10617 10616 10614 10613 10611 10610 10609 10607 10606 10605 10603 10602 10600 10599 10597 10595 10592 10590 10588 10585 10583 10581 10580 10580 10580 10579 10577 10575 10575 10574 10572